Location: Handeloh
(53.2500°N, 9.8330°E)
Time: 16:16:49
(UTC+01:00)

S-56A Canister/Altair - Pass Details

Date: 22 November 2019
Orbit: 632 x 2500 km, 38.9° (Epoch: 14 December)

Event Time Altitude Azimuth Distance (km) Brightness Sun altitude
Rises 16:47:00 0° 230° (SW) 5,497 14.0 -4.9°
Reaches altitude 10° 16:51:41 10° 220° (SW) 4,187 12.6 -5.5°
Maximum altitude 16:59:52 26° 170° (S) 2,509 10.3 -6.6°
Drops below altitude 10° 17:05:55 10° 117° (ESE) 3,028 10.2 -7.4°
Enters shadow 17:08:32 - 105° (ESE) 3,700 10.6 -7.8°
Sets 17:08:42 0° 104° (ESE) 3,746 - -7.8°
